Change the Weather History Date:

Friday, December 7, 2012

  Actual Average Record
Temperature  
Mean Temperature 38 °F 36 °F  
Max Temperature 42 °F 45 °F 78 °F (1951)
Min Temperature 33 °F 28 °F 2 °F (2002)
Degree Days  
Heating Degree Days 27 29  
Month to date heating degree days 134 193  
Since 1 July heating degree days 1243 1263  
Cooling Degree Days 0 0  
Month to date cooling degree days 0 0  
Year to date cooling degree days 1145 895  
Moisture  
Dew Point 35 °F    
Average Humidity 81    
Maximum Humidity 92    
Minimum Humidity 69    
Precipitation  
Precipitation 0.13 in 0.10 in 1.46 in (2011)
Month to date precipitation 0.13 0.73  
Year to date precipitation 29.53 36.72  
Sea Level Pressure  
Sea Level Pressure 30.09 in    
Wind  
Wind Speed 2 mph (North)    
Max Wind Speed 7 mph    
Max Gust Speed 14 mph    
Visibility 7 miles    
Events Rain    
T = Trace of Precipitation, MM = Missing Value Source: NWS Daily Summary

Daily Weather History Graph

Daily Weather History Graph

Search for Another Location

Airport or City:

Trip Planner

Search our weather history database for the weather conditions in past years. The results will help you decide how hot, cold, wet, or windy it might be!

Date:

Astronomy

Dec. 07, 2012 Rise Set
Actual Time 7:18 AM EST 4:48 PM EST
Civil Twilight 6:48 AM EST 5:18 PM EST
Nautical Twilight 6:15 AM EST 5:51 PM EST
Astronomical Twilight 5:42 AM EST 6:24 PM EST
Moon 12:37 AM EST (12/7) 12:42 PM EST (12/7)
Length of Visible Light 10h 29m
Length of Day
9h 29m
Last Quarter, 39% of the Moon is Illuminated
Dec 7
Last Quarter
Dec 13
New
Dec 20
First Quarter
Dec 28
Full
Jan 4
Last Quarter

Hourly Weather History & Observations

Time (EST) Temp. Windchill Dew Point Humidity Pressure Visibility Wind Dir Wind Speed Gust Speed Precip Events Conditions
12:53 AM 35.1 °F - 26.1 °F 70% 30.19 in 10.0 mi Calm Calm - N/A   Mostly Cloudy
1:53 AM 34.0 °F - 25.0 °F 70% 30.18 in 10.0 mi Calm Calm - N/A   Partly Cloudy
2:53 AM 36.0 °F 33.3 °F 27.0 °F 70% 30.17 in 10.0 mi ENE 3.5 mph - N/A   Overcast
3:53 AM 37.0 °F - 28.0 °F 70% 30.15 in 10.0 mi Calm Calm - N/A   Overcast
4:53 AM 36.0 °F - 30.0 °F 79% 30.14 in 10.0 mi Calm Calm - 0.00 in Rain Light Rain
5:53 AM 36.0 °F - 30.9 °F 82% 30.14 in 9.0 mi Calm Calm - 0.03 in Rain Light Rain
7:53 AM 36.0 °F - 34.0 °F 93% 30.14 in 6.0 mi Calm Calm - 0.02 in Rain Light Rain
8:53 AM 37.0 °F - 34.0 °F 89% 30.14 in 5.0 mi Calm Calm - 0.02 in Rain Light Rain
9:26 AM 37.4 °F - 33.8 °F 87% 30.12 in 7.0 mi Calm Calm - 0.00 in Rain Light Rain
9:46 AM 37.4 °F 34.9 °F 35.6 °F 93% 30.13 in 7.0 mi North 3.5 mph - 0.00 in Rain Light Rain
9:53 AM 37.9 °F 35.5 °F 35.1 °F 89% 30.14 in 7.0 mi North 3.5 mph - 0.00 in   Overcast
10:53 AM 39.0 °F 36.8 °F 36.0 °F 89% 30.13 in 7.0 mi North 3.5 mph - N/A   Overcast
11:53 AM 39.9 °F 37.8 °F 36.0 °F 86% 30.10 in 7.0 mi NNW 3.5 mph - 0.00 in   Overcast
12:14 PM 41.0 °F - 37.4 °F 87% 30.08 in 8.0 mi Calm Calm - N/A   Overcast
12:23 PM 41.0 °F - 37.4 °F 87% 30.07 in 8.0 mi Calm Calm - N/A   Overcast
12:53 PM 42.1 °F - 37.0 °F 82% 30.07 in 9.0 mi Calm Calm - N/A   Overcast
1:23 PM 42.8 °F 41.1 °F 37.4 °F 81% 30.05 in 8.0 mi NNW 3.5 mph - N/A   Overcast
1:53 PM 42.1 °F 38.4 °F 37.0 °F 82% 30.06 in 8.0 mi NNW 5.8 mph - N/A   Overcast
2:37 PM 41.0 °F 37.1 °F 37.4 °F 87% 30.04 in 5.0 mi North 5.8 mph - 0.00 in Rain Light Rain
2:53 PM 41.0 °F 37.1 °F 37.9 °F 89% 30.05 in 5.0 mi NNE 5.8 mph - 0.00 in   Overcast
3:53 PM 41.0 °F 38.0 °F 37.9 °F 89% 30.05 in 4.0 mi North 4.6 mph - N/A   Overcast
4:53 PM 41.0 °F 39.0 °F 37.9 °F 89% 30.04 in 6.0 mi North 3.5 mph - N/A   Scattered Clouds
5:46 PM 39.2 °F - 37.4 °F 93% 30.03 in 5.0 mi Calm Calm - N/A   Scattered Clouds
5:53 PM 39.9 °F - 37.9 °F 93% 30.04 in 4.0 mi Calm Calm - N/A   Scattered Clouds
6:53 PM 39.9 °F 37.8 °F 37.0 °F 89% 30.04 in 5.0 mi NNE 3.5 mph - N/A   Clear
8:53 PM 39.0 °F 35.7 °F 37.0 °F 93% 30.02 in 5.0 mi North 4.6 mph - N/A   Partly Cloudy
9:53 PM 39.0 °F 36.8 °F 37.0 °F 93% 30.00 in 5.0 mi North 3.5 mph - N/A   Mostly Cloudy
10:53 PM 39.0 °F 36.8 °F 37.0 °F 93% 29.99 in 4.0 mi North 3.5 mph - N/A   Mostly Cloudy
11:53 PM 37.9 °F - 36.0 °F 93% 29.97 in 4.0 mi Calm Calm - N/A   Clear